K8VGL Weather Reports


time (UTC)temp
C
wind
direction
speed
KPH
gust
KPH
rain 1hr
cm
rain 24hr
cm
rain mn
cm
humidity
%
barometer
mb
20260503224551 14 257 8.0 20.9 0.00 0.00 0.00 55 1012.3
20260503223049 15 199 8.0 25.7 0.00 0.00 0.00 55 1012.3
20260503221549 15 195 9.7 24.1 0.00 0.00 0.00 54 1012.3
20260503220147 15 235 9.7 30.6 0.00 0.00 0.00 53 1012.3
20260503214542 15 229 9.7 29.0 0.00 0.00 0.00 52 1012.6
20260503213043 16 219 4.8 25.7 0.00 0.00 0.00 52 1012.6
20260503211540 16 179 12.9 32.2 0.00 0.00 0.00 52 1012.9
20260503210139 15 178 9.7 19.3 0.00 0.00 0.00 54 1013.3
20260503204557 15 223 6.4 24.1 0.00 0.00 0.00 52 1013.6
20260503203101 16 185 9.7 25.7 0.00 0.00 0.00 53 1014.0
20260503201552 15 127 9.7 25.7 0.00 0.00 0.00 52 1014.6
20260503200150 15 167 6.4 24.1 0.00 0.00 0.00 52 1014.9
20260503194547 15 206 8.0 25.7 0.00 0.00 0.00 54 1015.4
20260503193043 15 169 3.2 19.3 0.00 0.00 0.00 53 1015.9
20260503191543 15 200 6.4 19.3 0.00 0.00 0.00 53 1016.1
20260503190143 15 173 9.7 22.5 0.00 0.00 0.00 51 1015.9
20260503184601 15 175 8.0 27.4 0.00 0.00 0.00 52 1016.1
20260503183044 15 199 3.2 14.5 0.00 0.00 0.00 54 1016.2
20260503181536 15 273 3.2 16.1 0.00 0.00 0.00 54 1016.7
20260503180134 14 202 6.4 20.9 0.00 0.00 0.00 52 1017.1
20260503174553 14 210 6.4 20.9 0.00 0.00 0.00 53 1017.5
20260503173049 13 174 4.8 24.1 0.00 0.00 0.00 54 1017.8
20260503171608 13 204 8.0 24.1 0.00 0.00 0.00 52 1018.1
20260503170145 13 177 8.0 16.1 0.00 0.00 0.00 52 1018.2
20260503160140 13 236 8.0 20.9 0.00 0.00 0.00 53 1019.0
20260503150148 12 182 6.4 20.9 0.00 0.00 0.00 55 1019.4
20260503140140 10 167 4.8 17.7 0.00 0.00 0.00 58 1019.9
20260503130148 8 149 4.8 16.1 0.00 0.00 0.00 64 1019.8
20260503120139 5 182 0.0 6.4 0.00 0.00 0.00 73 1019.8
20260503110153 3 198 1.6 4.8 0.00 0.00 0.00 78 1019.4
20260503100140 2 204 0.0 3.2 0.00 0.00 0.00 82 1019.0
20260503090150 2 179 0.0 1.6 0.00 0.00 0.00 84 1019.1
20260503081540 2 188 0.0 0.0 0.00 0.00 0.00 83 1019.1
20260503080138 2 188 0.0 1.6 0.00 0.00 0.00 84 1019.3
20260503071606 2 309 0.0 1.6 0.00 0.00 0.00 88 1019.2
20260503070150 1 309 0.0 0.0 0.00 0.00 0.00 89 1019.3
20260503054558 2 309 0.0 0.0 0.00 0.00 0.00 89 1019.7
20260503053047 2 309 0.0 1.6 0.00 0.00 0.00 88 1019.7
20260503051546 2 309 0.0 0.0 0.00 0.00 0.00 88 1019.8
20260503050006 2 309 0.0 0.0 0.00 0.00 0.00 87 1019.8
20260503044508 2 309 0.0 0.0 0.00 0.00 0.00 86 1019.8
20260503043002 2 309 0.0 0.0 0.00 0.00 0.00 86 1019.8
20260503041501 2 309 0.0 0.0 0.00 0.00 0.00 85 1019.8
20260503040154 3 309 0.0 0.0 0.00 0.00 0.00 83 1019.8
20260503034547 3 309 0.0 0.0 0.00 0.00 0.00 82 1019.7
20260503033042 3 309 0.0 0.0 0.00 0.00 0.00 81 1019.8
20260503031544 3 309 0.0 0.0 0.00 0.00 0.00 80 1019.8
20260503030141 3 309 0.0 0.0 0.00 0.00 0.00 79 1019.9
20260503024554 4 309 0.0 0.0 0.00 0.00 0.00 77 1019.9
20260503023104 4 309 0.0 0.0 0.00 0.00 0.00 74 1019.9
20260503021557 5 309 0.0 0.0 0.00 0.00 0.00 74 1019.7
20260503020152 5 309 0.0 0.0 0.00 0.00 0.00 70 1019.6
20260503014549 6 309 0.0 0.0 0.00 0.00 0.00 71 1019.4
20260503013046 6 309 0.0 0.0 0.00 0.00 0.00 69 1019.3
20260503011555 7 309 0.0 0.0 0.00 0.00 0.00 61 1019.2
20260503010141 7 309 0.0 0.0 0.00 0.00 0.00 58 1019.2
20260503004553 8 309 0.0 0.0 0.00 0.00 0.00 55 1019.2
20260503003053 8 309 0.0 4.8 0.00 0.00 0.00 53 1019.2
20260503001552 8 299 0.0 4.8 0.00 0.00 0.00 52 1019.1
20260503000151 9 340 0.0 4.8 0.00 0.00 0.00 50 1019.0
20260502234557 9 323 1.6 9.7 0.00 0.00 0.00 48 1018.9
20260502233043 10 315 1.6 11.3 0.00 0.00 0.00 45 1018.8
20260502231543 10 311 3.2 8.0 0.00 0.00 0.00 46 1018.9
20260502230141 10 354 1.6 12.9 0.00 0.00 0.00 47 1019.0